• In Hungary
  • List of Countries
  • For 7 days
  • Water Temperature
  • Satellite Maps
  • Weather Map
  • News
  • Weather Widgets
  • user-avatar
    Login

    Hourly Weather Eger

    Today, 25 November, Saturday

    Time Temperature Precipitation Wind Pressure Humidity
    00:00 +6°C° 0 mm 1 mps 747 mmHg 94%
    01:00 +6°C° 0 mm 1 mps 747 mmHg 95%
    02:00 +6°C° 0 mm 1 mps 747 mmHg 95%
    03:00 +6°C° 0 mm 1 mps 747 mmHg 95%
    04:00 +6°C° 0 mm 1 mps 747 mmHg 95%
    05:00 +6°C° 0 mm 1 mps 746 mmHg 95%
    06:00 +6°C° 0 mm 1 mps 746 mmHg 96%
    07:00 +6°C° 0 mm 1 mps 746 mmHg 96%
    08:00 +7°C° 0 mm 1 mps 746 mmHg 93%
    09:00 +6°C° 0 mm 2 mps 745 mmHg 90%
    10:00 +7°C° 0 mm 2 mps 745 mmHg 88%
    11:00 +8°C° 0 mm 2 mps 744 mmHg 85%
    12:00 +8°C° 0 mm 3 mps 744 mmHg 82%
    13:00 +9°C° 0 mm 3 mps 743 mmHg 79%
    14:00 +8°C° 0 mm 3 mps 743 mmHg 82%
    15:00 +8°C° 0 mm 2 mps 742 mmHg 85%
    16:00 +8°C° 0 mm 2 mps 742 mmHg 87%
    17:00 +8°C° 0.1 mm 2 mps 742 mmHg 87%
    18:00 +8°C° 0.1 mm 3 mps 742 mmHg 86%
    19:00 +8°C° 0.1 mm 3 mps 742 mmHg 86%
    20:00 +8°C° 0.5 mm 3 mps 742 mmHg 86%
    21:00 +8°C° 0.5 mm 3 mps 742 mmHg 86%
    22:00 +8°C° 0.5 mm 3 mps 742 mmHg 86%
    23:00 +7°C° 0.1 mm 3 mps 742 mmHg 88%

    Tomorrow, 26 November, Sunday

    Time Temperature Precipitation Wind Pressure Humidity
    00:00 +7°C° 0.1 mm 2 mps 742 mmHg 90%
    01:00 +7°C° 0.1 mm 2 mps 742 mmHg 91%
    02:00 +7°C° 0.3 mm 2 mps 742 mmHg 92%
    03:00 +8°C° 0.3 mm 1 mps 742 mmHg 93%
    04:00 +8°C° 0.3 mm 1 mps 742 mmHg 94%
    05:00 +8°C° 0.7 mm 1 mps 742 mmHg 94%
    06:00 +8°C° 0.7 mm 1 mps 742 mmHg 94%
    07:00 +8°C° 0.7 mm 1 mps 742 mmHg 94%
    08:00 +7°C° 1.3 mm 2 mps 742 mmHg 93%
    09:00 +7°C° 1.3 mm 2 mps 742 mmHg 92%
    10:00 +6°C° 1.3 mm 2 mps 743 mmHg 92%
    11:00 +5°C° 2 mm 3 mps 743 mmHg 90%
    12:00 +5°C° 2 mm 4 mps 743 mmHg 88%
    13:00 +5°C° 2 mm 4 mps 743 mmHg 87%
    14:00 +5°C° 0.9 mm 4 mps 743 mmHg 86%
    15:00 +5°C° 0.9 mm 4 mps 743 mmHg 84%
    16:00 +5°C° 0.9 mm 4 mps 743 mmHg 83%
    17:00 +5°C° 0.5 mm 4 mps 744 mmHg 82%
    18:00 +4°C° 0.5 mm 3 mps 744 mmHg 81%
    19:00 +4°C° 0.5 mm 3 mps 745 mmHg 81%
    20:00 +4°C° 0.1 mm 3 mps 745 mmHg 80%
    21:00 +4°C° 0.1 mm 3 mps 745 mmHg 79%
    22:00 +4°C° 0.1 mm 3 mps 746 mmHg 79%
    23:00 +3°C° 0 mm 3 mps 746 mmHg 78%

    Day after tomorrow, 27 November, Monday

    Time Temperature Precipitation Wind Pressure Humidity
    00:00 +3°C° 0 mm 4 mps 746 mmHg 77%
    01:00 +3°C° 0 mm 4 mps 747 mmHg 77%
    02:00 +2°C° 0 mm 3 mps 747 mmHg 76%
    03:00 +2°C° 0 mm 3 mps 747 mmHg 76%
    04:00 +2°C° 0 mm 3 mps 747 mmHg 75%
    05:00 +1°C° 0 mm 3 mps 748 mmHg 77%
    06:00 +1°C° 0 mm 3 mps 748 mmHg 78%
    07:00 0°C° 0 mm 3 mps 748 mmHg 79%
    08:00 +1°C° 0 mm 3 mps 749 mmHg 74%
    09:00 +2°C° 0 mm 3 mps 749 mmHg 70%
    10:00 +3°C° 0 mm 3 mps 749 mmHg 65%
    11:00 +3°C° 0 mm 3 mps 749 mmHg 62%
    12:00 +4°C° 0 mm 3 mps 749 mmHg 59%
    13:00 +4°C° 0 mm 3 mps 749 mmHg 57%
    14:00 +3°C° 0 mm 3 mps 749 mmHg 61%
    15:00 +4°C° 0 mm 2 mps 749 mmHg 66%
    16:00 +3°C° 0 mm 2 mps 748 mmHg 70%
    17:00 +2°C° 0 mm 2 mps 749 mmHg 72%
    18:00 +2°C° 0 mm 2 mps 749 mmHg 75%
    19:00 +1°C° 0 mm 2 mps 749 mmHg 77%
    20:00 +1°C° 0 mm 2 mps 749 mmHg 78%
    21:00 +1°C° 0 mm 2 mps 749 mmHg 79%
    22:00 +1°C° 0 mm 2 mps 748 mmHg 80%
    23:00 +1°C° 0 mm 2 mps 748 mmHg 80%

    28 November, Tuesday

    Time Temperature Precipitation Wind Pressure Humidity
    00:00 -1°C° 0 mm 2 mps 748 mmHg 81%
    01:00 -1°C° 0 mm 2 mps 748 mmHg 81%
    02:00 -1°C° 0 mm 2 mps 747 mmHg 80%
    03:00 -1°C° 0 mm 2 mps 747 mmHg 80%
    04:00 -1°C° 0 mm 2 mps 747 mmHg 80%
    05:00 +1°C° 0 mm 1 mps 747 mmHg 79%
    06:00 +1°C° 0 mm 1 mps 747 mmHg 79%
    07:00 +1°C° 0 mm 1 mps 747 mmHg 78%
    08:00 +2°C° 0 mm 1 mps 746 mmHg 73%
    09:00 +3°C° 0 mm 1 mps 746 mmHg 67%
    10:00 +4°C° 0 mm 1 mps 746 mmHg 61%
    11:00 +5°C° 0 mm 1 mps 745 mmHg 58%
    12:00 +5°C° 0 mm 1 mps 745 mmHg 55%
    13:00 +6°C° 0 mm 1 mps 744 mmHg 52%
    14:00 +5°C° 0 mm 1 mps 744 mmHg 57%
    15:00 +3°C° 0 mm 0 mps 744 mmHg 62%
    16:00 +1°C° 0 mm 0 mps 743 mmHg 67%
    17:00 +1°C° 0 mm 0 mps 743 mmHg 69%
    18:00 +1°C° 0 mm 0 mps 743 mmHg 70%
    19:00 0°C° 0 mm 0 mps 743 mmHg 72%
    20:00 0°C° 0 mm 0 mps 743 mmHg 73%
    21:00 0°C° 0 mm 0 mps 743 mmHg 73%
    22:00 0°C° 0 mm 0 mps 743 mmHg 74%
    23:00 +1°C° 0 mm 1 mps 742 mmHg 74%

    29 November, Wednesday

    Time Temperature Precipitation Wind Pressure Humidity
    00:00 +1°C° 0 mm 1 mps 742 mmHg 74%
    01:00 +1°C° 0 mm 1 mps 742 mmHg 75%
    02:00 +1°C° 0 mm 1 mps 742 mmHg 75%
    03:00 0°C° 0 mm 1 mps 741 mmHg 76%
    04:00 0°C° 0 mm 1 mps 741 mmHg 76%
    05:00 0°C° 0 mm 1 mps 741 mmHg 77%
    06:00 0°C° 0 mm 1 mps 741 mmHg 77%
    07:00 0°C° 0 mm 1 mps 741 mmHg 77%
    08:00 -1°C° 0 mm 2 mps 741 mmHg 73%
    09:00 +1°C° 0 mm 2 mps 741 mmHg 69%
    10:00 +1°C° 0 mm 3 mps 741 mmHg 64%
    11:00 +1°C° 0 mm 3 mps 741 mmHg 63%
    12:00 +2°C° 0 mm 3 mps 741 mmHg 62%
    13:00 +2°C° 0 mm 3 mps 741 mmHg 61%
    14:00 +3°C° 0 mm 2 mps 741 mmHg 64%
    15:00 +2°C° 0 mm 2 mps 741 mmHg 68%
    16:00 +3°C° 0 mm 1 mps 741 mmHg 72%
    17:00 +3°C° 0 mm 1 mps 741 mmHg 73%
    18:00 +3°C° 0 mm 1 mps 741 mmHg 74%
    19:00 +3°C° 0 mm 1 mps 741 mmHg 76%
    20:00 +3°C° 0.2 mm 1 mps 741 mmHg 77%
    21:00 +3°C° 0.2 mm 1 mps 741 mmHg 78%
    22:00 +3°C° 0.2 mm 1 mps 741 mmHg 80%
    23:00 +2°C° 0.1 mm 2 mps 740 mmHg 81%

    30 November, Thursday

    Time Temperature Precipitation Wind Pressure Humidity
    00:00 +1°C° 0.1 mm 2 mps 740 mmHg 82%
    01:00 +1°C° 0.1 mm 2 mps 739 mmHg 83%
    02:00 +1°C° 0.1 mm 2 mps 739 mmHg 83%
    03:00 0°C° 0.1 mm 3 mps 738 mmHg 83%
    04:00 0°C° 0.1 mm 3 mps 737 mmHg 83%
    05:00 0°C° 0.2 mm 3 mps 737 mmHg 82%
    06:00 +1°C° 0.2 mm 3 mps 736 mmHg 81%
    07:00 +1°C° 0.2 mm 3 mps 736 mmHg 80%
    08:00 +1°C° 1.8 mm 3 mps 735 mmHg 84%
    09:00 +1°C° 1.8 mm 3 mps 735 mmHg 87%
    10:00 +1°C° 1.8 mm 3 mps 734 mmHg 91%
    11:00 +2°C° 1.4 mm 3 mps 734 mmHg 93%
    12:00 +3°C° 1.4 mm 2 mps 734 mmHg 94%
    13:00 +4°C° 1.4 mm 1 mps 733 mmHg 95%
    14:00 +4°C° 1.2 mm 1 mps 733 mmHg 96%
    15:00 +4°C° 1.2 mm 1 mps 734 mmHg 96%
    16:00 +4°C° 1.2 mm 1 mps 734 mmHg 97%
    17:00 +4°C° 0.5 mm 1 mps 734 mmHg 97%
    18:00 +3°C° 0.5 mm 2 mps 734 mmHg 96%
    19:00 +3°C° 0.5 mm 2 mps 735 mmHg 96%
    20:00 +3°C° 0.1 mm 2 mps 735 mmHg 95%
    21:00 +3°C° 0.1 mm 2 mps 735 mmHg 94%
    22:00 +3°C° 0.1 mm 2 mps 735 mmHg 94%
    23:00 +3°C° 0.7 mm 2 mps 735 mmHg 93%
    Show more